RH
71 71 70 69 73 71 74 70 70 69 69 69 69 74 77 79 80 82 82 80 76 74 74 74 76 82 68 57 57 43 54 49 68 68 75 79 72 72 71 69 54 53 48 42 42 57 67
73 73 71 72 71 70 71 73 72 72 73 70 71 76 79 81 81 83 82 80 76 75 76 74 78 78 61 63 42 50 45 48 65 71 70 69 70 71 72 68 59 53 47 44 41 40 59
73 74 74 70 72 72 73 73 74 73 71 72 74 78 82 83 83 83 81 77 77 77 77 76 74 69 64 52 50 50 40 43 66 72 75 69 69 62 65 66 59 58 51 46 42 44 51
74 74 74 74 74 72 73 74 73 74 75 78 79 81 82 83 84 83 81 79 78 82 80 76 71 66 57 41 48 40 39 50 51 64 72 68 69 63 69 60 50 53 52 48 38 48 52
73 75 76 75 74 73 72 73 76 75 77 79 80 81 83 82 82 82 81 78 80 80 75 74 68 70 52 43 43 42 46 45 50 57 62 52 58 64 55 58 61 59 60 59 44 49 56
75 76 75 76 74 74 74 74 74 77 79 82 81 84 82 80 80 83 82 78 75 63 53 58 58 55 37 48 48 44 45 46 53 60 60 60 62 65 64 62 70 62 58 57 54 48 58
73 76 77 77 77 77 76 76 77 78 80 83 84 86 81 81 81 81 78 52 47 41 50 55 56 58 48 46 50 46 46 47 54 58 72 68 78 79 64 63 56 61 55 50 45 40 58
74 76 78 78 78 78 78 78 77 78 80 84 84 85 81 80 79 77 72 74 76 73 60 56 56 60 53 54 55 46 42 51 57 69 65 66 74 66 65 65 66 62 55 52 46 45 56
72 78 78 79 80 79 79 80 78 76 82 86 85 84 81 81 76 74 80 84 77 73 67 48 49 52 47 52 56 52 48 55 64 67 71 76 61 55 59 55 50 54 54 52 52 46 53
74 78 80 80 81 80 80 81 80 80 84 86 83 82 79 79 66 84 80 78 73 65 58 33 38 45 45 55 51 46 51 56 57 66 67 65 57 58 59 57 55 53 52 51 50 50 52
75 79 81 81 82 81 79 80 82 83 86 86 83 79 77 71 71 71 74 80 74 46 66 32 39 38 44 51 49 48 52 52 63 63 63 58 63 66 61 61 58 54 56 57 59 57 56
78 80 82 82 82 82 79 80 81 83 86 88 84 79 73 72 82 83 82 78 54 69 52 46 45 51 50 49 48 48 52 50 58 64 61 65 61 65 63 58 58 54 54 56 65 65 78
82 81 82 81 82 82 80 78 80 80 83 87 88 79 72 71 65 83 76 61 72 62 39 35 52 56 63 55 49 54 59 57 67 71 76 63 57 59 61 61 55 53 63 80 79 83 73
82 82 82 81 80 81 82 78 77 78 82 89 90 76 74 75 88 79 63 42 46 36 45 53 57 57 53 48 50 48 54 56 60 67 78 74 65 55 60 64 66 65 60 77 68 68 57
82 83 83 81 79 80 80 81 80 79 85 87 76 88 82 80 80 71 46 65 44 36 45 56 50 49 46 47 45 41 54 55 58 63 64 67 57 48 66 64 59 62 69 58 60 64 62
81 83 83 82 80 81 80 80 81 82 84 81 79 84 82 81 79 59 49 49 42 50 54 58 52 55 50 48 44 44 46 44 53 48 52 55 65 53 58 64 62 61 51 61 72 70 68
82 82 81 81 80 82 82 81 80 81 81 83 90 62 80 81 63 56 56 44 48 52 49 47 53 61 49 51 53 48 43 43 50 52 53 52 54 52 53 63 59 61 64 55 57 58 59
82 80 78 80 81 82 82 81 80 80 80 80 86 30 76 75 55 76 50 48 54 57 60 52 55 51 48 53 49 45 46 43 50 50 52 48 53 64 47 52 59 59 57 52 64 60 59
80 80 78 79 83 84 83 82 82 80 82 81 54 64 78 62 46 49 51 54 48 49 51 54 54 57 56 48 45 42 43 49 56 54 52 49 54 65 49 53 52 57 57 50 54 58 57
79 79 79 81 82 84 83 84 84 82 78 81 57 44 53 72 69 50 58 46 46 56 47 49 45 50 55 45 43 44 42 42 59 56 60 50 54 45 54 42 44 44 46 59 58 78 58
82 80 79 82 79 76 78 82 84 84 78 72 75 43 66 48 49 69 69 52 49 47 54 48 51 45 43 47 49 46 45 40 58 60 64 55 60 63 52 51 52 46 47 47 63 50 51
83 82 81 77 69 70 72 76 82 84 72 78 47 62 73 74 63 78 70 62 50 46 46 53 51 48 47 44 38 28 41 47 44 67 62 61 58 59 57 47 54 53 47 53 49 46 53
81 80 78 77 74 72 71 73 78 81 68 85 98 90 67 53 60 67 56 53 44 55 43 46 47 51 56 45 41 38 38 41 43 49 64 65 68 65 66 59 56 56 51 53 50 49 45
80 79 79 78 76 74 74 73 75 80 77 90 98 88 80 61 57 55 56 54 49 50 52 52 49 49 49 67 66 68 70 65 64 58 52 67 66 61 73 64 72 38 50 47 47 46 45
84 81 80 80 79 78 77 75 75 78 78 88 96 88 86 78 70 59 52 52 47 47 58 56 50 51 64 69 65 56 42 36 64 83 78 57 61 72 73 79 56 37 58 59 57 50 50
84 81 79 80 80 80 79 80 78 77 82 88 93 93 96 94 67 76 73 60 51 48 45 48 71 71 68 74 66 62 41 27 25 89 73 65 62 72 86 85 62 29 58 60 55 55 51
85 84 84 84 87 89 90 91 90 90 87 86 89 91 92 94 87 81 72 55 51 52 52 58 74 78 73 78 76 79 67 44 44 56 94 86 81 80 77 91 77 50 54 58 66 44 49
93 92 91 90 90 90 90 89 89 88 90 92 91 85 83 94 80 78 70 67 65 62 55 50 55 68 84 82 79 75 92 67 70 52 75 72 86 88 86 94 86 51 56 53 42 50 52
88 87 87 85 84 83 83 82 81 81 82 86 99 90 91 99 90 75 64 56 54 53 55 65 54 57 70 78 86 92 83 93 78 64 76 65 45 42 64 64 47 50 44 43 51 50 55
Wind_Speed
6 7 9 10 11 12 12 12 11 11 10 10 9 10 10 11 11 11 11 11 11 12 13 14 15 17 3 5 4 5 14 9 3 4 4 4 4 2 1 1 2 1 2 3 5 6 2
7 8 9 11 11 12 12 12 12 12 11 9 9 10 10 11 11 12 12 12 12 12 12 13 13 11 3 4 4 6 7 5 4 3 5 5 3 2 1 2 1 2 3 4 4 6 2
6 8 9 10 11 12 13 13 12 11 10 9 9 10 11 12 12 12 12 12 13 13 13 12 10 3 2 4 3 7 5 3 2 1 3 2 2 3 2 2 2 1 2 2 3 2 3
7 8 9 9 11 12 13 12 12 12 10 10 10 10 11 13 13 13 13 13 13 14 13 9 8 2 4 4 5 4 6 5 3 2 2 4 2 2 1 4 3 2 4 3 4 4 2
6 8 9 9 10 11 13 13 12 12 11 10 11 12 13 12 13 13 14 14 13 10 7 6 2 3 5 7 6 6 2 5 7 2 1 1 2 2 4 3 3 6 1 0 4 3 3
6 7 8 8 9 10 11 13 12 11 12 11 11 11 12 12 12 13 15 11 5 4 2 0 1 3 6 6 6 6 4 3 3 6 3 6 5 3 4 5 2 3 2 1 2 3 2
4 7 9 9 9 10 10 11 13 12 12 12 11 11 11 10 12 12 7 4 7 4 8 2 4 3 6 9 3 5 4 5 4 6 4 5 7 3 4 2 1 1 1 3 3 3 0
4 5 8 9 10 10 11 10 12 12 11 12 11 10 10 9 11 10 3 6 2 2 5 1 3 5 6 2 4 6 6 6 6 5 7 6 5 4 4 2 1 2 1 3 4 4 2
3 5 7 9 10 10 11 11 12 11 11 10 10 10 10 11 7 5 4 2 3 2 1 6 3 4 5 1 3 6 5 2 4 6 5 1 4 5 1 3 4 2 2 3 2 6 2
3 5 6 8 10 11 11 11 12 11 10 8 8 9 11 13 6 2 2 5 3 1 5 7 4 2 3 1 3 2 2 1 4 4 4 3 4 5 3 3 2 3 2 3 2 3 2
3 4 5 7 9 10 11 12 12 12 10 10 9 8 8 9 3 3 3 4 1 3 7 8 7 2 6 3 5 2 2 2 2 3 3 4 5 5 3 1 1 3 2 1 2 3 2
1 3 5 6 7 9 10 11 11 12 12 10 8 8 7 4 3 1 4 2 4 9 5 7 4 7 7 4 5 7 5 4 0 1 2 5 4 2 2 4 2 2 0 3 3 2 2
2 1 4 5 7 8 10 11 12 12 12 11 8 7 4 0 1 3 2 4 8 8 3 8 4 5 3 5 6 6 6 7 4 7 7 7 3 3 1 2 3 5 5 4 5 4 4
3 1 3 5 6 7 9 10 12 13 13 10 5 3 3 2 2 1 3 5 7 2 5 2 3 5 3 5 2 5 4 7 2 4 2 4 9 4 4 1 3 2 0 4 2 2 4
4 3 2 4 6 7 9 10 12 13 13 8 3 2 2 2 2 2 5 5 6 5 1 2 4 3 4 1 2 6 2 2 3 1 3 5 6 4 1 1 1 1 1 1 3 1 1
4 3 1 4 5 7 9 10 12 13 14 5 2 2 1 4 2 4 5 5 4 3 5 2 0 1 3 4 5 5 2 3 2 1 2 2 5 2 4 1 3 1 2 1 2 2 4
5 4 3 3 4 6 8 10 12 15 15 1 3 3 1 3 2 5 3 6 4 4 3 5 4 3 4 4 1 3 4 3 3 2 1 3 3 6 2 2 1 2 2 2 1 4 3
7 4 3 3 3 4 7 10 12 15 15 6 2 2 2 1 3 1 2 4 2 3 1 2 2 5 5 3 3 3 4 5 4 4 1 3 3 5 7 2 3 2 3 4 4 4 3
8 6 4 2 1 3 5 8 10 13 11 2 2 2 2 3 2 2 3 3 3 4 4 4 4 5 3 4 3 5 3 1 4 4 4 4 2 4 8 2 1 3 5 4 3 2 6
8 7 4 3 3 1 4 6 8 12 9 2 3 2 3 3 1 2 2 4 3 2 2 4 3 3 3 3 5 4 3 2 4 3 2 2 3 6 7 9 3 6 6 5 6 3 5
11 8 5 6 6 1 3 5 7 9 7 2 3 3 1 2 1 2 1 2 2 3 3 4 2 7 8 4 3 5 4 4 2 2 2 3 6 5 8 11 6 16 17 10 11 12 11
10 9 9 8 5 4 3 2 6 9 3 4 2 2 1 2 2 2 3 4 5 3 6 4 5 1 7 7 10 7 5 4 6 2 5 1 5 2 7 8 5 9 12 12 15 15 11
9 11 10 10 7 7 5 2 2 7 4 3 1 1 4 2 2 3 5 6 3 3 5 3 7 3 4 15 9 9 7 5 7 7 8 6 4 2 7 3 6 10 7 6 4 5 6
9 10 10 10 9 8 5 6 3 6 5 2 1 2 4 4 2 5 2 4 4 4 5 2 4 6 6 3 0 1 4 7 7 9 6 6 5 4 5 4 3 6 3 6 7 8 11
10 10 9 10 9 6 6 5 3 5 7 4 2 3 2 3 3 6 7 6 6 4 5 7 7 4 0 2 2 6 5 5 4 3 6 6 5 3 4 4 8 7 4 6 7 6 6
10 9 8 7 7 7 6 4 5 4 7 3 2 3 3 3 6 2 2 2 3 4 5 4 1 0 4 3 2 5 6 7 5 1 5 5 2 4 2 4 7 6 2 1 3 7 9
11 9 7 5 1 3 4 4 4 4 2 4 2 4 3 3 6 7 5 4 3 2 3 4 4 0 1 3 4 5 7 6 6 7 7 4 3 12 9 6 9 10 5 3 1 8 6
13 15 16 15 14 13 13 12 11 10 12 2 2 7 5 4 5 9 6 6 2 3 4 2 4 2 1 4 4 6 5 7 2 5 9 11 10 7 4 4 10 8 5 9 8 4 7
19 18 18 17 17 16 15 14 14 14 14 6 2 2 2 5 4 2 11 18 15 16 6 4 3 3 4 1 3 3 4 2 5 6 1 5 10 8 12 12 3 9 5 9 2 2 5
Wind_Direction
14 10 2 5 359 1 357 354 353 348 348 343 336 325 319 311 318 319 320 324 327 329 332 334 334 335 6 21 281 300 334 338 357 11 24 357 39 5 49 279 318 159 289 327 338 336 29
12 3 4 360 1 1 358 357 354 352 344 343 332 328 318 311 314 314 317 319 322 324 326 328 334 338 39 28 261 322 330 337 9 29 353 22 349 305 268 308 106 294 292 285 299 298 244
4 3 3 2 1 3 359 1 355 352 349 340 337 332 322 316 316 313 313 316 317 317 317 318 333 8 335 253 333 319 344 295 289 96 341 296 320 9 315 325 316 276 329 280 210 282 335
3 358 2 8 3 4 1 0 356 351 343 346 343 341 326 318 317 312 312 313 311 306 305 304 329 28 263 275 302 345 336 319 328 258 221 274 268 264 245 311 13 50 48 115 285 186 247
2 357 5 3 5 5 358 357 355 350 345 347 349 341 330 323 318 313 311 308 305 300 296 299 36 52 318 326 3 310 290 309 309 318 291 261 49 54 9 40 21 15 105 95 315 244 145
354 1 353 2 2 5 3 357 353 353 345 350 345 344 332 329 320 313 309 305 305 337 335 39 96 37 332 307 302 314 305 336 330 328 22 40 44 46 24 37 50 359 20 7 256 327 317
3 358 351 356 360 359 6 3 355 353 347 345 344 343 334 331 323 324 345 22 21 351 36 129 274 248 286 296 293 319 345 353 9 46 17 358 56 29 304 341 144 65 74 334 280 354 251
348 7 357 353 353 1 359 8 2 351 351 345 341 339 331 331 331 341 47 70 108 186 323 224 253 268 251 274 316 316 11 44 37 357 344 19 19 306 276 256 26 36 32 313 294 352 160
329 9 6 358 350 360 358 2 6 358 352 345 340 336 331 329 334 35 57 60 328 186 107 302 260 274 277 13 299 286 30 348 51 11 7 47 299 322 42 39 38 19 38 357 300 331 59
328 10 10 7 356 356 360 0 6 4 358 352 344 344 339 328 45 307 44 326 326 200 64 308 351 347 328 305 284 266 1 80 5 339 346 265 325 358 7 66 61 37 329 321 331 45 258
316 1 9 17 10 0 2 359 2 3 8 357 342 350 358 30 158 56 291 323 308 64 43 315 306 296 322 49 311 332 324 23 310 306 52 280 345 355 3 305 18 237 350 45 352 102 48
312 358 8 21 21 9 5 360 359 1 357 359 347 346 354 23 40 321 314 0 43 44 293 335 309 353 7 5 339 311 9 20 170 4 355 267 291 180 267 313 300 294 149 54 62 72 43
221 7 18 12 30 18 11 1 355 357 351 342 337 347 49 110 208 317 345 46 35 95 9 310 321 0 346 302 331 32 359 1 28 13 4 332 318 310 343 356 11 32 51 343 358 8 220
199 113 45 13 21 26 14 7 356 352 348 332 319 27 4 87 315 24 50 48 71 203 242 348 320 323 326 2 315 334 17 1 13 69 12 29 335 8 342 46 186 18 13 154 261 285 290
207 126 42 34 8 22 17 9 358 351 352 354 90 358 65 334 340 55 69 43 206 198 185 318 318 3 325 328 322 15 31 261 250 95 69 9 284 310 285 317 333 182 120 311 104 8 351
196 140 76 48 11 12 15 5 359 353 349 353 83 72 317 324 34 60 72 235 216 181 138 111 202 90 298 297 3 19 301 234 239 151 163 189 305 238 282 356 9 239 167 58 20 266 261
183 159 131 68 19 11 6 3 360 354 350 2 45 51 276 349 83 60 180 230 232 222 157 154 207 239 232 293 262 290 262 260 187 145 141 157 149 283 322 169 229 38 287 38 128 170 246
177 167 148 90 3 2 5 3 1 359 352 48 95 6 320 25 36 59 207 203 196 182 158 212 197 211 210 206 257 266 252 238 162 161 222 185 159 279 244 205 158 204 247 172 146 252 231
176 186 184 146 351 341 10 5 5 4 11 112 96 251 332 92 229 270 275 276 232 160 216 177 235 212 193 225 261 207 249 296 162 166 181 182 249 320 338 62 56 227 205 190 123 94 211
182 184 201 193 205 306 2 6 5 10 2 68 88 350 332 55 116 207 271 251 263 212 213 185 215 152 157 255 234 275 259 246 188 241 145 148 202 194 217 232 164 244 226 205 177 187 242
186 167 198 214 225 315 342 357 357 15 5 75 46 240 158 274 278 222 286 304 243 257 221 198 243 217 179 221 245 234 237 281 180 192 151 165 239 198 258 263 262 264 264 230 207 235 224
176 178 203 222 212 231 283 337 358 10 28 82 136 149 50 270 294 176 194 238 217 251 170 234 212 219 191 211 201 235 205 204 235 178 182 200 258 207 277 271 240 269 260 236 233 245 256
179 199 202 218 212 224 242 277 74 20 59 90 3 328 109 268 194 133 219 219 225 163 251 198 207 167 198 235 225 232 210 221 224 186 193 176 188 147 266 358 314 285 235 190 205 212 191
199 211 209 218 219 237 240 258 103 83 83 117 154 121 100 260 197 207 238 213 245 226 244 276 172 171 234 133 220 349 259 244 232 241 183 165 156 177 266 342 252 243 185 184 206 241 208
204 207 208 211 228 247 253 260 235 168 150 89 181 111 127 241 229 282 252 236 288 271 239 231 236 215 348 54 344 320 314 312 248 214 204 184 152 233 237 218 294 289 199 166 178 269 201
195 198 205 213 231 239 250 254 247 246 156 118 197 122 128 122 246 197 281 276 273 269 312 247 267 304 72 107 135 230 229 229 270 245 28 107 96 173 161 227 230 236 168 193 123 280 197
193 199 207 214 185 82 74 66 46 25 215 150 225 174 119 199 249 155 205 213 210 224 241 294 292 278 110 168 206 219 234 206 226 197 173 140 173 215 226 257 284 253 160 154 142 244 179
101 102 99 92 84 74 65 59 57 46 31 175 241 188 185 225 224 189 180 204 273 200 232 255 350 269 109 194 208 228 208 220 237 203 182 174 172 198 162 208 276 189 78 180 213 266 192
87 84 78 75 74 70 67 62 54 45 32 8 293 31 309 238 270 256 237 232 233 239 254 207 232 206 226 201 247 291 257 205 204 250 183 238 209 208 189 206 256 214 209 222 31 248 220